Regional Weather Roundup
Issued by NWS Portland, ME

Current Version | Previous Version | Text Only | Print | Product List | Glossary Off
Versions: 1 2 3 4 5 6 7 8 9 10 11 12 13 14 15 16 17 18 19 20 21 22 23 24 25 26 27 28 29 30 31 32 33 34 35 36 37 38 39 40 41 42 43 44 45 46 47 48 49 50
000 ASUS41 KGYX 220005 RWRGYX WEATHER ROUNDUP FOR MAINE AND NEW HAMPSHIRE NATIONAL WEATHER SERVICE GRAY ME 800 PM EDT THU JUN 21 2018 MEZ002-005-006-010-012-015-018-020-021-024-026-027-029-220100- MAINE CITY SKY/WX TMP DP RH WIND PRES REMARKS PORTLAND FAIR 64 56 75 S6 29.85R 6HR MIN TEMP: 64; 6HR MAX TEMP: 74; SANFORD FAIR 65 57 75 E5 29.84R BAR HARBOR FAIR 68 44 42 N5 29.85R WISCASSET FAIR 62 51 67 CALM 29.86R 6HR MIN TEMP: 62; 6HR MAX TEMP: 73; ROCKLAND FAIR 60 51 72 S6 29.85R FRYEBURG FAIR 68 42 38 N6 29.87R 6HR MIN TEMP: 68; 6HR MAX TEMP: 80; LEWISTONAUBURN FAIR 70 40 33 N8 29.85R AUGUSTA FAIR 70 38 31 N9 29.86R 6HR MIN TEMP: 70; 6HR MAX TEMP: 78; WATERVILLE FAIR 67 39 35 N6 29.83R BANGOR FAIR 68 42 38 N8 29.85R 6HR MIN TEMP: 68; 6HR MAX TEMP: 74; GREENVILLE N/A 59 40 49 NW9 29.87R 6HR MIN TEMP: 59; 6HR MAX TEMP: 65; MILLINOCKET FAIR 66 36 32 N5 29.88R 6HR MIN TEMP: 66; 6HR MAX TEMP: 72; HOULTON FAIR 58 39 49 N7 29.86R 6HR MIN TEMP: 58; 6HR MAX TEMP: 68; PRESQUE ISLE FAIR 59 37 44 N7 29.90R 6HR MIN TEMP: 59; 6HR MAX TEMP: 65; FRENCHVILLE FAIR 57 35 43 NW6 29.89R 6HR MIN TEMP: 57; 6HR MAX TEMP: 63; CARIBOU FAIR 58 36 43 N7 29.88R 6HR MIN TEMP: 58; 6HR MAX TEMP: 65; $$ NHZ002-005-008-009-011-012-014-220100- NEW HAMPSHIRE CITY SKY/WX TMP DP RH WIND PRES REMARKS PORTSMOUTH PTCLDY 65 55 68 S3 29.82R ROCHESTER FAIR 69 57 65 CALM 29.83R 6HR MIN TEMP: 69; 6HR MAX TEMP: 80; NASHUA FAIR 74 62 66 CALM 29.83R MANCHESTER FAIR 78 42 27 N9 29.81R 6HR MIN TEMP: 77; 6HR MAX TEMP: 84; CONCORD FAIR 73 43 33 N8 29.84R 6HR MIN TEMP: 73; 6HR MAX TEMP: 81; LACONIA FAIR 70 45 40 NW5 29.86R PLYMOUTH FAIR 68 41 36 CALM 29.86R BERLIN FAIR 63 39 41 NW5 29.91R 6HR MIN TEMP: 63; 6HR MAX TEMP: 73; WHITEFIELD FAIR 64 41 42 N5 29.90R 6HR MIN TEMP: 64; 6HR MAX TEMP: 73; JAFFREY FAIR 74 46 36 CALM 29.86R 6HR MIN TEMP: 74; 6HR MAX TEMP: 81; KEENE FAIR 75 41 29 N6 29.84R LEBANON FAIR 71 39 31 N9 29.87R 6HR MIN TEMP: 71; 6HR MAX TEMP: 80; MT WASHINGTON NOT AVBL $$ VTZ005-007-008-220100- VERMONT CITY SKY/WX TMP DP RH WIND PRES REMARKS ST JOHNSBURY N/A 64 38 38 MISG 29.89R MONTPELIER FAIR 62 40 44 N7 29.95R BURLINGTON FAIR 66 38 35 N8 29.92R $$ MAZ007-012-024-CTZ003-RIZ002-NYZ038-NYZ072-220100- SOUTHERN NEW ENGLAND AND NY CITY SKY/WX TMP DP RH WIND PRES REMARKS BOSTON FAIR 67 57 70 E5 29.83R WORCESTER MOCLDY 71 58 63 E3 29.85R NANTUCKET FOG 60 60 100 SE9 29.82R VSB<1/4 PROVIDENCE FAIR 69 63 81 S8 29.83R HARTFORD FAIR 77 56 48 N9 29.80R ALBANY FAIR 73 47 39 N12 29.85R NEW YORK CITY MOCLDY 83 58 42 VRB7 29.77R $$ ANZ081-ANZ082-ANZ150-NHZ014-MEZ023>029-220100- COASTAL MARINE OBSERVATIONS STATION/POSITION TIME TEMP WIND PRES WAVE AIR SEA DIR/SP/G HT/PER (UTC) (F) (DEG/KT/KT) (MB) (FT/S) MOUNT DESERT ROC 0000 57 220/ 7/ 7 1011.1R MATINICUS ROCK 2300 61 180/ 12/ 12 1009.6R ISLE OF SHOALS 2300 61 150/ 10/ 10 1009.1R JEFFREYS LEDGE 2336 62 N/A 1/ 8 $$ .............KEY.............. WCI - WIND CHILL TC - TEMPERATURE IN CELSIUS VSB - VISIBILITY IN MILES HX - HEAT INDEX FAIR- INDICATES FEW OR NO CLOUDS BELOW 12,000 FT, WITH NO SIGNIFICANT WEATHER AND/OR OBSTRUCTIONS TO VISIBILITY.

USA.gov is the U.S. government's official web portal to all federal, state and local government web resources and services.